Regional Weather Roundup
Issued by NWS Northern Indiana

Home | Current Version | Previous Version | Text Only | Print | Product List | Glossary Off
Versions: 1 2 3 4 5 6 7 8 9 10 11 12 13 14 15 16 17 18 19 20 21 22 23 24 25 26 27 28 29 30 31 32 33 34 35 36 37 38 39 40 41 42 43 44 45 46 47 48 49 50

000
ASUS43 KIWX 200000
RWRIWX

KIWX WEATHER ROUNDUP
NATIONAL WEATHER SERVICE NORTHERN INDIANA
800 PM EDT SAT APR 19 2014

NOTE: "FAIR" INDICATES FEW OR NO CLOUDS BELOW 12,000 FEET WITH NO
SIGNIFICANT WEATHER AND/OR OBSTRUCTIONS TO VISIBILITY.

* THESE STATIONS ARE NOT UNDER NWS QUALITY CONTROL. THEY ALSO MAY NOT
  REPORT WEATHER SUCH AS PRECIPITATION OR FOG.

INZ001>027-200100-
NORTHERN INDIANA

CITY           SKY/WX    TMP DP  RH WIND       PRES   REMARKS
GARY*          MOCLDY    55  39  54 CALM      30.23F
VALPARAISO     PTCLDY    61  34  36 SE9       30.25S
6HR MIN TEMP:  61; 6HR MAX TEMP:  66;

SOUTH BEND     CLEAR     61  33  35 SE10      30.28S
6HR MIN TEMP:  59; 6HR MAX TEMP:  64;

GOSHEN         CLEAR     57  32  38 E9        30.28S
6HR MIN TEMP:  57; 6HR MAX TEMP:  64;

ANGOLA*        CLEAR     54  28  37 E10       30.31S
FORT WAYNE     PTCLDY    54  28  36 E10       30.30S
6HR MIN TEMP:  54; 6HR MAX TEMP:  61;

PERU/GRISSOM   CLEAR     60  36  41 E10       30.26F
6HR MIN TEMP:  60; 6HR MAX TEMP:  65;


$$
INZ028>050-200100-
CENTRAL INDIANA

CITY           SKY/WX    TMP DP  RH WIND       PRES   REMARKS
LAFAYETTE      CLEAR     59  37  44 E10       30.24S
6HR MIN TEMP:  59; 6HR MAX TEMP:  67;

KOKOMO*        CLEAR     59  34  38 E12       30.26S
6HR MIN TEMP:  59; 6HR MAX TEMP:  64;

MUNCIE*        CLEAR     58  35  42 E12       30.27S
6HR MIN TEMP:  58; 6HR MAX TEMP:  63;

INDIANAPOLIS   PTCLDY    63  36  36 E9        30.23F
6HR MIN TEMP:  63; 6HR MAX TEMP:  68;


$$
MIZ043>046-050>051-056>058-064>065-071>073-077>080-200100-
SOUTHWEST LOWER MICHIGAN

CITY           SKY/WX    TMP DP  RH WIND       PRES   REMARKS
BATTLE CREEK   CLEAR     58  28  32 SE12      30.29F
6HR MIN TEMP:  55; 6HR MAX TEMP:  62;

BENTON HARBOR  PTCLDY    58  34  40 SE8       30.25F
6HR MIN TEMP:  58; 6HR MAX TEMP:  65;

COLDWATER*     CLEAR     53  28  38 SE7       30.31S
6HR MIN TEMP:  53; 6HR MAX TEMP:  60;

HILLSDALE*     CLEAR     51  25  36 SE8       30.32S
6HR MIN TEMP:  51; 6HR MAX TEMP:  58;

HOLLAND        PTCLDY    60  31  33 E7        30.26F
6HR MIN TEMP:  58; 6HR MAX TEMP:  65;

GRAND RAPIDS   MOCLDY    58  29  33 E10       30.28F
6HR MIN TEMP:  55; 6HR MAX TEMP:  63;

KALAMAZOO      PTCLDY    58  30  34 SE9       30.29S
6HR MIN TEMP:  57; 6HR MAX TEMP:  63;

STURGIS*       CLEAR     55  28  35 E10       30.29S
THREE RIVERS*  FAIR      57  28  32 E10       30.29F
6HR MIN TEMP:  57; 6HR MAX TEMP:  63;


$$
OHZ001>008-015>018-024>025-200100-
NORTHWEST OHIO

CITY           SKY/WX    TMP DP  RH WIND       PRES   REMARKS
DEFIANCE       CLEAR     52  25  35 E9        30.33S
6HR MIN TEMP:  52; 6HR MAX TEMP:  59;

FINDLAY        CLEAR     50  22  33 NE13      30.31F
6HR MIN TEMP:  50; 6HR MAX TEMP:  58;

TOLEDO EXPRESS CLEAR     48  28  46 E9        30.35R
6HR MIN TEMP:  48; 6HR MAX TEMP:  54;

TOLEDO METCALF CLEAR     47  28  47 E8        30.36S
6HR MIN TEMP:  47; 6HR MAX TEMP:  53;

LIMA           CLEAR     51  24  34 E9        30.30S
6HR MIN TEMP:  51; 6HR MAX TEMP:  60;


$$
&&



USA.gov is the U.S. government's official web portal to all federal, state and local government web resources and services.